Hourly Data Report for December 07, 2020

SHEARWATER RCS
NOVA SCOTIA
Current Station Operator: ECCC - MSC

44°37'47.000" N
63°30'48.000" W
24.00 m
8205092
71264
AAW

Download Data

Hourly Data (December 2020)
Hourly Data Report for December 7, 2020
TIME
LST
Temp Definition
°C
Dew Point Definition
°C
Rel Hum Definition
%
Precip. Amount Definition
mm

Wind Dir Definition
10's deg

Wind Spd Definition
km/h
Visibility Definition
km
Stn Press Definition
kPa
Hmdx Definition


Wind Chill Definition


Weather Definition


00:00 3.3 -0.6 76 0.0 23 17   99.02     LegendNANA
01:00 2.8 -1.6 73 0.0 24 22   99.03     LegendNANA
02:00 2.1 -2.2 73 0.0 24 20   99.06     LegendNANA
03:00 1.9 -2.6 72 0.0 24 16   99.09     LegendNANA
04:00 1.9 -2.1 75 0.0 24 19   99.12     LegendNANA
05:00 1.1 -2.8 76 0.0 24 19   99.13     LegendNANA
06:00 1.3 -2.4 76 0.0 23 19   99.14     LegendNANA
07:00 1.2 -1.4 83 0.0 24 21   99.23     LegendNANA
08:00 1.5 -1.8 79 0.0 24 18   99.30     LegendNANA
09:00 1.6 -1.5 80 0.0 24 17   99.33     LegendNANA
10:00 2.4 -1.7 74 0.2 25 19   99.40     LegendNANA
11:00 3.1 -1.6 72 0.0 26 15   99.39     LegendNANA
12:00 3.5 -1.8 68 0.0 27 17   99.40     LegendNANA
13:00 3.8 -1.0 71 0.0 26 15   99.38     LegendNANA
14:00 3.5 -0.2 77 0.0 26 14   99.44     LegendNANA
15:00 3.9 -0.5 73 0.0 28 14   99.57     LegendNANA
16:00 3.3 -0.7 75 0.0 28 13   99.68     LegendNANA
17:00 2.6 -1.1 76 0.0 28 14   99.79     LegendNANA
18:00 2.4 -0.7 80 0.0 27 11   99.87     LegendNANA
19:00 2.0 -0.8 81 0.0 29 13   99.91     LegendNANA
20:00 2.0 -0.8 82 0.0 29 10   100.01     LegendNANA
21:00 2.0 -0.8 82 0.0 26 9   100.11     LegendNANA
22:00 1.5 -0.7 85 0.0 33 8   100.10     LegendNANA
23:00 1.3 -0.6 87 0.0 30 9   100.17     LegendNANA

Notes on Data Quality.

Legend

  • E = Estimated
  • M = Missing
  • NA = Not Available*
  • [empty] = Indicates an unobserved value
Date modified: